sat.trackr.live / text

‹ back to catalog

STARLINK-11692 [DTC]

NORAD 64381 · 2025-127M

PAYLOAD ACTIVE UNKNOWN

§ Identity

Operator
Country
US
Launch date
2025-06-13
Launch site
AFETR
Launch vehicle
Mass (kg)
RCS (m²)

Purposes: comms

External: N2YO · Heavens-Above · Gunter

§ Orbital elements

Epoch: 2026-09-20T07:40:14.892384Z

Period
91.67 min
Inclination
43.0003°
Eccentricity
0.0003459
Mean motion
15.70837771 rev/d
Perigee alt
354.2 km
Apogee alt
358.8 km
Semi-major
6,734.6 km
B*
9.5168e-4
RAAN
351.2758°
Arg perigee
299.0204°
Mean anomaly
61.0317°
Rev number
7,422

§ Raw data

STARLINK-11692 [DTC]1 64381U 25127M   26263.31961681  .00123507  00000+0  95168-3 0  99922 64381  43.0003 351.2758 0003459 299.0204  61.0317 15.70837771 74221

JSON: /api/v1/satellites/64381 · /tle

For live sub-satellite position, see the globe view (requires WebGL).

§ Visibility from observer

Set your observer location to see the next 7 days of passes ≥ 10°. The values pass through the URL so the page stays shareable.

No JS? Fill the form by hand. The geolocation button needs JavaScript.